Denver, CO

1:57 PM MDT on March 26, 2017 (GMT -0600)
Denver International

Weather History for KDEN - December, 2011

Change the Weather History Date:

Thursday, December 22, 2011

  Actual Average Record
Temperature  
Mean Temperature 15 °F 29 °F  
Max Temperature 27 °F 42 °F 70 °F (1955)
Min Temperature 3 °F 17 °F -25 °F (1990)
Degree Days  
Heating Degree Days 50 36  
Month to date heating degree days 897 771  
Since 1 July heating degree days 2149 2153  
Cooling Degree Days 0 0  
Month to date cooling degree days 0 0  
Year to date cooling degree days 964 769  
Moisture  
Dew Point 16 °F    
Average Humidity 84    
Maximum Humidity 92    
Minimum Humidity 76    
Precipitation  
Precipitation 0.20 in 0.01 in 0.87 in (1941)
Month to date precipitation 0.78 0.25  
Year to date precipitation 17.31 14.20  
Snow  
Snow 4.10 in - - ()
Month to date snowfall 16.5  
Since 1 July snowfall 29.5  
Snow Depth 5.00 in    
Sea Level Pressure  
Sea Level Pressure 30.28 in    
Wind  
Wind Speed 11 mph (NNE)    
Max Wind Speed 25 mph    
Max Gust Speed 29 mph    
Visibility 3 miles    
Events Snow    
T = Trace of Precipitation, MM = Missing Value Source: NWS Daily Summary

Daily Weather History Graph

Daily Weather History Graph

Search for Another Location

Airport or City:

Trip Planner

Search our weather history database for the weather conditions in past years. The results will help you decide how hot, cold, wet, or windy it might be!

Date:

Astronomy

Dec. 22, 2011 Rise Set
Actual Time 7:16 AM MST 4:37 PM MST
Civil Twilight 6:46 AM MST 5:08 PM MST
Nautical Twilight 6:12 AM MST 5:42 PM MST
Astronomical Twilight 5:39 AM MST 6:15 PM MST
Moon 5:03 AM MST (12/22) 2:50 PM MST (12/22)
Length of Visible Light 10h 21m
Length of Day
9h 20m
Waning Crescent, 5% of the Moon is Illuminated
Dec 22
Waning Crescent
Dec 24
New
Dec 31
First Quarter
Jan 9
Full
Jan 16
Last Quarter

Hourly Weather History & Observations

Time (MST) Temp. Windchill Dew Point Humidity Pressure Visibility Wind Dir Wind Speed Gust Speed Precip Events Conditions
12:07 AM 26.6 °F 14.7 °F 24.8 °F 93% 30.02 in 0.5 mi NE 15.0 mph - 0.01 in Snow Light Snow
12:36 AM 26.6 °F 12.0 °F 23.0 °F 86% 30.02 in 0.5 mi NE 23.0 mph - 0.03 in Snow Light Snow
12:53 AM 26.1 °F 11.6 °F 23.0 °F 88% 30.09 in 0.5 mi NE 21.9 mph - 0.03 in Snow Light Snow
1:14 AM 24.8 °F 10.7 °F 23.0 °F 93% 30.05 in 0.5 mi NE 19.6 mph - 0.00 in Snow Light Snow
1:25 AM 24.8 °F 12.4 °F 23.0 °F 93% 30.06 in 0.5 mi NE 15.0 mph - 0.01 in Snow Light Snow
1:43 AM 24.8 °F 12.4 °F 23.0 °F 93% 30.07 in 0.5 mi NE 15.0 mph - 0.02 in Snow Light Snow
1:53 AM 25.0 °F 9.9 °F 23.0 °F 92% 30.14 in 0.5 mi NE 23.0 mph - 0.02 in Snow Light Snow
2:53 AM 25.0 °F 12.2 °F 21.9 °F 88% 30.17 in 0.5 mi NE 16.1 mph - 0.02 in Snow Light Snow
3:43 AM 23.0 °F 7.2 °F 19.4 °F 86% 30.13 in 0.5 mi NE 23.0 mph - 0.01 in Snow Light Snow
3:53 AM 23.0 °F 7.2 °F 19.9 °F 88% 30.21 in 0.5 mi ENE 23.0 mph - 0.01 in Snow Light Snow
4:33 AM 21.2 °F 8.3 °F 19.4 °F 93% 30.17 in 0.5 mi ENE 13.8 mph - 0.01 in Snow Light Snow
4:42 AM 21.2 °F 8.9 °F 19.4 °F 93% 30.17 in 0.5 mi NE 12.7 mph - 0.01 in Snow Light Snow
4:53 AM 21.9 °F 9.8 °F 19.9 °F 92% 30.26 in 0.5 mi NE 12.7 mph - 0.03 in Snow Light Snow
5:32 AM 23.0 °F 12.4 °F 19.4 °F 86% 30.20 in 0.5 mi NNE 10.4 mph - 0.03 in Snow Light Snow
5:46 AM 23.0 °F 11.7 °F 19.4 °F 86% 30.21 in 0.5 mi North 11.5 mph - 0.03 in Snow Light Snow
5:53 AM 23.0 °F 12.4 °F 19.9 °F 88% 30.30 in 0.5 mi North 10.4 mph - 0.03 in Snow Light Snow
6:14 AM 21.2 °F 10.1 °F 19.4 °F 93% 30.22 in 0.5 mi North 10.4 mph - 0.01 in Snow Light Snow
6:34 AM 21.2 °F 8.3 °F 19.4 °F 93% 30.23 in 0.5 mi North 13.8 mph - 0.03 in Snow Light Snow
6:44 AM 21.2 °F 8.3 °F 19.4 °F 93% 30.23 in 0.5 mi North 13.8 mph - 0.03 in Snow Light Snow
6:53 AM 21.9 °F 9.2 °F 19.0 °F 89% 30.32 in 1.2 mi North 13.8 mph - 0.03 in Snow Light Snow
7:08 AM 21.2 °F 7.8 °F 17.6 °F 86% 30.25 in 1.8 mi North 15.0 mph - 0.00 in Snow Light Snow
7:39 AM 21.2 °F 7.8 °F 17.6 °F 86% 30.25 in 0.8 mi North 15.0 mph - 0.00 in Snow Light Snow
7:48 AM 21.2 °F 7.8 °F 17.6 °F 86% 30.26 in 1.0 mi North 15.0 mph - 0.00 in Snow Light Snow
7:53 AM 21.0 °F 6.6 °F 18.0 °F 88% 30.36 in 1.0 mi North 17.3 mph - 0.00 in Snow Light Snow
8:01 AM 21.2 °F 6.4 °F 17.6 °F 86% 30.27 in 1.0 mi NNE 18.4 mph - 0.00 in Snow Light Snow
8:13 AM 21.2 °F 6.4 °F 17.6 °F 86% 30.27 in 1.0 mi NNE 18.4 mph - 0.00 in Snow Light Snow
8:30 AM 21.2 °F 6.4 °F 17.6 °F 86% 30.28 in 1.0 mi NNE 18.4 mph - 0.00 in Snow Light Snow
8:39 AM 21.2 °F 7.8 °F 17.6 °F 86% 30.28 in 1.0 mi NNE 15.0 mph - 0.01 in Snow Light Snow
8:53 AM 19.9 °F 6.2 °F 17.1 °F 89% 30.39 in 1.0 mi North 15.0 mph - 0.01 in Snow Light Snow
9:17 AM 19.4 °F 7.9 °F 17.6 °F 93% 30.31 in 2.0 mi North 10.4 mph - 0.00 in Snow Light Snow
9:53 AM 19.9 °F 7.9 °F 17.1 °F 89% 30.43 in 2.0 mi North 11.5 mph - 0.00 in Snow Light Snow
9:58 AM 19.4 °F 6.6 °F 17.6 °F 93% 30.32 in 4.0 mi North 12.7 mph - 0.00 in Snow Light Snow
10:20 AM 19.4 °F 6.6 °F 17.6 °F 93% 30.33 in 2.0 mi North 12.7 mph - 0.00 in Snow Light Snow
10:27 AM 21.2 °F 8.9 °F 17.6 °F 86% 30.33 in 2.0 mi North 12.7 mph - 0.00 in Snow Light Snow
10:48 AM 21.2 °F 9.5 °F 17.6 °F 86% 30.32 in 2.0 mi North 11.5 mph - 0.01 in Snow Light Snow
10:53 AM 21.0 °F 9.9 °F 17.1 °F 85% 30.42 in 2.0 mi North 10.4 mph - 0.01 in Snow Light Snow
11:03 AM 21.2 °F 9.5 °F 17.6 °F 86% 30.32 in 1.5 mi North 11.5 mph - 0.00 in Snow Light Snow
11:13 AM 21.2 °F 9.5 °F 17.6 °F 86% 30.32 in 0.8 mi North 11.5 mph - 0.00 in Snow Light Snow
11:22 AM 21.2 °F 10.1 °F 15.8 °F 80% 30.31 in 0.5 mi North 10.4 mph - 0.00 in Snow Snow
11:30 AM 21.2 °F 10.9 °F 15.8 °F 80% 30.31 in 2.0 mi North 9.2 mph - 0.00 in Snow Light Snow
11:38 AM 21.2 °F 10.9 °F 15.8 °F 80% 30.31 in 2.0 mi North 9.2 mph - 0.00 in Snow Light Snow
11:53 AM 21.0 °F 9.3 °F 16.0 °F 81% 30.40 in 3.0 mi North 11.5 mph - 0.00 in Snow Light Snow
11:59 AM 19.4 °F 7.2 °F 15.8 °F 86% 30.30 in 2.5 mi North 11.5 mph - 0.00 in Snow Light Snow
12:22 PM 19.4 °F 8.6 °F 15.8 °F 86% 30.30 in 2.5 mi North 9.2 mph - 0.01 in Snow Light Snow
12:37 PM 19.4 °F 11.5 °F 14.0 °F 80% 30.29 in 4.0 mi North 5.8 mph - N/A Snow Light Snow
12:53 PM 19.4 °F 11.5 °F 14.0 °F 80% 30.29 in 5.0 mi North 5.8 mph - N/A Snow Light Snow
1:18 PM 19.4 °F 11.5 °F 15.8 °F 86% 30.29 in 7.0 mi North 5.8 mph - 0.00 in   Overcast
1:53 PM 19.9 °F 14.9 °F 15.1 °F 81% 30.40 in 9.0 mi NE 3.5 mph - 0.00 in   Overcast
2:53 PM 19.9 °F 13.4 °F 14.0 °F 78% 30.40 in 10.0 mi East 4.6 mph - N/A   Overcast
3:47 PM 15.8 °F 7.2 °F 10.4 °F 79% 30.28 in 10.0 mi East 5.8 mph - N/A   Mostly Cloudy
3:53 PM 16.0 °F 8.8 °F 10.9 °F 81% 30.42 in 10.0 mi ESE 4.6 mph - N/A   Mostly Cloudy
4:53 PM 10.0 °F -2.9 °F 6.1 °F 84% 30.43 in 10.0 mi SSE 9.2 mph - N/A   Mostly Cloudy
5:53 PM 10.9 °F -0.8 °F 7.0 °F 84% 30.44 in 10.0 mi South 8.1 mph - N/A   Mostly Cloudy
6:53 PM 6.8 °F -7.8 °F 3.2 °F 85% 30.28 in 10.0 mi South 10.4 mph - N/A   Scattered Clouds
7:53 PM 6.8 °F -6.9 °F -0.4 °F 72% 30.27 in 10.0 mi South 9.2 mph - N/A   Scattered Clouds
8:53 PM 5.0 °F -9.1 °F 1.0 °F 84% 30.47 in 10.0 mi South 9.2 mph - N/A   Scattered Clouds
9:53 PM 10.9 °F 0.2 °F 5.0 °F 77% 30.44 in 10.0 mi WSW 6.9 mph - N/A   Scattered Clouds
10:53 PM 6.1 °F -7.8 °F 1.0 °F 80% 30.46 in 9.0 mi SW 9.2 mph - N/A   Partly Cloudy
11:53 PM 10.9 °F -3.4 °F 7.0 °F 84% 30.44 in 7.0 mi SSW 11.5 mph - N/A   Partly Cloudy